MST,Max TemperatureF,Mean TemperatureF,Min TemperatureF,Max Dew PointF,MeanDew PointF,Min DewpointF,Max Humidity, Mean Humidity, Min Humidity, Max Sea Level PressureIn, Mean Sea Level PressureIn, Min Sea Level PressureIn, Max VisibilityMiles, Mean VisibilityMiles, Min VisibilityMiles, Max Wind SpeedMPH, Mean Wind SpeedMPH, Max Gust SpeedMPH,PrecipitationIn, CloudCover, Events, WindDirDegrees
2013-3-1,73,53,33,26,18,9,52,29,6,30.32,30.25,30.15,10,10,10,10,5,12,0.00,0,,181
2013-3-2,84,64,43,27,21,-3,45,25,5,30.28,30.17,30.04,10,10,10,16,6,17,0.00,0,,148
2013-3-3,81,65,48,28,21,10,42,25,7,30.13,30.03,29.87,10,10,10,16,8,23,0.00,1,,190
2013-3-4,74,65,55,32,26,16,38,26,14,30.04,29.90,29.81,10,10,10,22,8,28,0.00,2,,294
2013-3-5,79,63,47,33,27,20,50,31,11,30.07,30.01,29.94,10,10,10,17,6,21,0.00,0,,189
2013-3-6,82,68,54,35,28,22,47,30,12,29.99,29.91,29.83,10,10,10,14,6,20,0.00,0,,169
2013-3-7,80,65,50,30,24,12,44,26,8,29.92,29.87,29.83,10,10,10,23,8,29,0.00,1,,182
2013-3-8,69,58,47,41,36,30,59,42,25,29.94,29.83,29.73,10,10,10,32,14,47,T,4,Thunderstorm,208
2013-3-9,54,49,44,39,35,32,83,65,46,30.06,30.01,29.94,10,10,10,17,6,22,0.01,7,,295
2013-3-10,66,56,45,38,35,29,71,49,26,30.13,30.09,30.03,10,10,10,21,6,25,0.00,2,,324
2013-3-11,74,58,41,34,29,18,70,42,13,30.15,30.07,29.98,10,10,10,13,5,16,0.00,0,,192
2013-3-12,83,64,44,36,29,21,53,32,10,30.07,30.01,29.93,10,10,10,13,6,17,0.00,0,,158
2013-3-13,89,70,50,35,26,13,54,30,6,30.09,30.02,29.95,10,10,10,15,6,20,0.00,0,,117
2013-3-14,92,73,54,31,20,6,38,21,4,30.08,30.00,29.93,10,10,10,17,6,23,0.00,0,,127
2013-3-15,94,74,54,28,19,2,31,17,3,30.09,29.92,29.83,10,10,10,21,8,28,0.00,0,,195
2013-3-16,90,72,54,22,15,2,28,16,4,29.85,29.78,29.68,10,10,10,21,7,25,0.00,0,,183
2013-3-17,85,69,52,23,18,13,25,17,8,29.92,29.81,29.76,10,10,10,26,9,32,0.00,0,,234
2013-3-18,83,67,51,31,23,13,41,24,7,29.95,29.89,29.84,10,10,10,15,5,23,0.00,0,,191
2013-3-19,81,67,52,33,27,24,35,24,13,29.99,29.93,29.88,10,10,10,18,5,23,0.00,0,,256
2013-3-20,83,69,54,29,27,23,35,24,12,30.00,29.92,29.82,10,10,10,15,7,22,0.00,0,,180
2013-3-21,79,68,56,32,29,27,33,25,16,29.81,29.73,29.68,10,10,10,14,5,18,0.00,0,,223
2013-3-22,81,71,61,34,28,19,31,21,10,29.75,29.68,29.62,10,10,10,21,9,30,0.00,0,,253
2013-3-23,76,64,52,30,18,3,41,24,6,29.94,29.86,29.76,10,10,10,20,7,29,0.00,0,,275
2013-3-24,77,61,45,13,3,-17,27,15,3,29.98,29.91,29.83,10,10,10,18,7,25,0.00,0,,229
2013-3-25,82,64,46,15,10,6,21,14,7,29.97,29.91,29.85,10,10,10,13,6,21,0.00,0,,142
2013-3-26,88,71,54,16,11,2,22,13,4,29.93,29.85,29.77,10,10,10,16,7,39,0.00,0,,152
2013-3-27,86,71,55,21,17,14,22,15,7,29.94,29.87,29.83,10,10,10,20,8,26,0.00,0,,185
2013-3-28,85,71,56,29,21,14,26,17,7,30.00,29.95,29.89,10,10,10,16,7,22,0.00,0,,214
2013-3-29,87,72,56,30,20,8,30,18,6,30.04,29.99,29.92,10,10,10,20,5,32,0.00,0,,180
2013-3-30,85,73,60,27,18,12,22,15,7,30.01,29.95,29.88,10,10,10,20,6,24,0.00,0,,197
2013-3-31,86,70,53,26,22,16,32,21,9,29.99,29.92,29.84,10,10,10,14,5,23,0.00,0,,211